パンスターズ彗星

C/2016 C1 ( PanSTARRS )

English version
Home page
Updated on August 28, 2018

---------------------------------------------------------------------

・ プロフィール

発見日 2016年2月12日
発見光度 19.9等
発見者 Pan-STARRS 1 telescope (Haleakala)

・ 写真集

・ 軌道要素

Epoch 2016 Feb. 22.0 TT = JDT 2457440.5
T 2016 Feb. 16.40932 TT                                 MPCW
q   8.4594021            (2000.0)            P               Q
z  -0.0005814      Peri.  328.57089     -0.86189426     -0.50643025
 +/-0.0000014      Node   181.78102     +0.41414606     -0.73239057
e   1.0049187      Incl.   56.17870     -0.29261123     +0.45511806
From 207 observations 2016 Feb. 12-2018 Mar. 19, mean residual 0".5.

・ 光度変化

        m1 = -5.0 + 5 logΔ + 20 log r

---------------------------------------------------------------------

軌道要素はM.P.E.C. 2018-F152に掲載されたものです。
光度グラフはComet for Windowsで作成したものです。

---------------------------------------------------------------------

Copyright(C) Seiichi Yoshida (comet@aerith.net). All rights reserved.